Location: Beutels
(47.8767°N, 9.8584°E)
Time: 12:20:54
(UTC+00:00)

ISS - Visible Passes

Search period start: 21 January 2026 00:00
Search period end: 31 January 2026 00:00
Orbit: 413 x 423 km, 51.6° (Epoch: 20 January)

Date Brightness Start Highest point End Pass type
(mag) Time Alt. Az. Time Alt. Az. Time Alt. Az.
21 Jan -3.1 17:41:29 10° WNW 17:44:41 41° N 17:45:21 36° NE visible
22 Jan -3.1 16:53:26 10° WNW 16:56:38 42° N 16:59:23 13° ENE visible
22 Jan -2.1 18:30:25 10° WNW 18:32:20 31° NW 18:32:20 31° NW visible
23 Jan -3.4 17:42:24 10° WNW 17:45:40 50° NNE 17:46:22 41° NE visible
23 Jan -0.2 19:19:13 10° WNW 19:19:18 11° WNW 19:19:18 11° WNW visible
24 Jan -3.2 16:54:19 10° WNW 16:57:33 44° N 17:00:26 12° E visible
24 Jan -2.4 18:31:08 10° WNW 18:33:22 39° WNW 18:33:22 39° WNW visible
25 Jan -3.9 17:43:02 10° WNW 17:46:23 80° NNE 17:47:28 40° ESE visible
25 Jan -0.2 19:20:12 10° W 19:20:25 11° W 19:20:25 11° W visible
26 Jan -3.7 16:54:53 10° WNW 16:58:13 60° NNE 17:01:32 10° E visible
26 Jan -2.2 18:31:48 10° WNW 18:34:36 33° SW 18:34:36 33° SW visible
27 Jan -3.1 17:43:30 10° WNW 17:46:47 51° SSW 17:48:53 19° SE visible
28 Jan -3.6 16:55:15 10° WNW 16:58:35 77° SSW 17:01:55 10° ESE visible
28 Jan -1.0 18:32:53 10° W 18:34:54 15° SW 18:36:18 12° SSW visible
29 Jan -1.4 17:44:05 10° W 17:46:48 23° SW 17:49:32 10° SSE visible
30 Jan -2.1 16:55:33 10° WNW 16:58:38 35° SW 17:01:42 10° SSE visible
